Regional Weather Roundup
Issued by NWS

Home | Current Version | Previous Version | Graphics & Text | Print | Product List | Glossary On
Versions: 1 2 3 4 5 6 7 8 9 10 11 12 13 14 15 16 17 18 19 20 21 22 23 24 25 26 27 28 29 30 31 32 33 34 35 36 37 38 39 40 41 42 43 44 45 46 47 48 49 50
000
ASUS43 KOAX 090002
RWRNE

WEATHER ROUNDUP FOR NEBRASKA
NATIONAL WEATHER SERVICE OMAHA NE
600 PM CST THU DEC 08 2016

NOTES: SATELLITE DATA IS BEING USED TO AUGMENT CLOUD COVER ABOVE
       12000 FEET.
       "FAIR" INDICATES FEW OR NO CLOUDS BELOW 12,000 FEET WITH NO
       SIGNIFICANT WEATHER AND/OR OBSTRUCTIONS TO VISIBILITY.

  * THESE STATIONS DO NOT REPORT WEATHER SUCH AS RAIN...SNOW OR FOG.

NEZ001>004-019>022-054>056-090100-
NEBRASKA PANHANDLE

CITY           SKY/WX    TMP DP  RH WIND       PRES   REMARKS
SCOTTSBLUFF    CLEAR      8  -1  66 E8        30.39F WCI  -4
6HR MIN TEMP:   8; 6HR MAX TEMP:  18;

ALLIANCE       CLEAR      4  -4  69 S7        30.41S WCI  -8
6HR MIN TEMP:   4; 6HR MAX TEMP:  18;

CHADRON        CLOUDY     6  -4  63 E5        30.46S WCI  -3
6HR MIN TEMP:   6; 6HR MAX TEMP:  16;

KIMBALL        CLOUDY     6   2  82 S7        30.32F WCI  -5
SIDNEY         CLOUDY     4  -3  73 SE7       30.40S WCI  -8
6HR MIN TEMP:   4; 6HR MAX TEMP:  16;

$$

NEZ057>060-069>072-079>082-090100-
SOUTHWEST NEBRASKA

CITY           SKY/WX    TMP DP  RH WIND       PRES   REMARKS
NORTH PLATTE   CLEAR     14   2  58 SW6       30.54R WCI   5
6HR MIN TEMP:  14; 6HR MAX TEMP:  23;

IMPERIAL       CLOUDY     7  -2  66 SE5       30.51S WCI  -2
6HR MIN TEMP:   7; 6HR MAX TEMP:  18;

LEXINGTON      CLEAR     17   0  48 N3        30.57R
MCCOOK         CLOUDY    14   3  61 SW5       30.57S WCI   6
6HR MIN TEMP:  11; 6HR MAX TEMP:  19;

OGALLALA       CLEAR     12   1  61 CALM      30.50R
$$

NEZ005>010-023>029-035>040-094-090100-
NORTH CENTRAL NEBRASKA

CITY           SKY/WX    TMP DP  RH WIND       PRES   REMARKS
VALENTINE      CLEAR      6  -4  63 NW3       30.56S
6HR MIN TEMP:   6; 6HR MAX TEMP:  15;

AINSWORTH      CLEAR     10  -1  61 CALM      30.56R
BROKEN BOW     CLEAR      9  -2  61 N5        30.55S WCI   1
6HR MIN TEMP:   6; 6HR MAX TEMP:  22;

O`NEILL        CLEAR     12   1  62 NW7       30.59S WCI   2
ORD            CLEAR     10  -2  58 NW6       30.58S WCI   0
6HR MIN TEMP:   9; 6HR MAX TEMP:  23;

THEDFORD       CLEAR     11  -3  52 CALM      30.53S
$$

NEZ041-046>049-061>064-073>077-083>087-090100-
SOUTH CENTRAL NEBRASKA

CITY           SKY/WX    TMP DP  RH WIND       PRES   REMARKS
GRAND ISLAND   CLEAR     16   4  59 NW6       30.61S WCI   7
6HR MIN TEMP:  15; 6HR MAX TEMP:  24;

AURORA         CLEAR     16   3  56 N5        30.60F WCI   9
HASTINGS       CLEAR     15   3  59 N3        30.60F
6HR MIN TEMP:  14; 6HR MAX TEMP:  25;

HEBRON         CLEAR     19   7  60 N3        30.63S
HOLDREGE       CLEAR     15   2  56 CALM      30.57S
KEARNEY *      CLEAR     18   0  45 CALM      30.58F
YORK           CLEAR     14   5  67 N7        30.62S WCI   4
$$

NEZ011>018-030>034-042>045-090100-
NORTHEAST NEBRASKA

CITY           SKY/WX    TMP DP  RH WIND       PRES   REMARKS
NORFOLK        CLEAR     13   2  61 NW5       30.61R WCI   5
6HR MIN TEMP:  13; 6HR MAX TEMP:  22;

ALBION         CLEAR     15   3  58 CALM      30.60S
BLAIR          CLEAR     19   9  63 NW5       30.60S WCI  12
FREMONT        CLEAR     16   8  71 NW7       30.63R WCI   6
TEKAMAH        CLEAR     17   7  64 NW7       30.63R WCI   8
6HR MIN TEMP:  17; 6HR MAX TEMP:  25;

WAYNE          PTCLDY    14   5  67 NW7       30.62R WCI   4
$$

NEZ050>053-065>068-078-088>093-090100-
SOUTHEAST NEBRASKA

CITY           SKY/WX    TMP DP  RH WIND       PRES   REMARKS
LINCOLN        CLEAR     21   7  54 NW6       30.65R WCI  13
6HR MIN TEMP:  21; 6HR MAX TEMP:  27;

OMAHA EPPLEY   CLEAR     19   7  59 NW8       30.63R WCI   9
6HR MIN TEMP:  19; 6HR MAX TEMP:  25;

BEATRICE       CLEAR     17   8  68 NW5       30.63R WCI   9
FALLS CITY     CLEAR     19  10  68 NW8       30.63S WCI   9
6HR MIN TEMP:  19; 6HR MAX TEMP:  26;

NEBRASKA CITY  CLEAR     19   6  58 NW7       30.62S WCI   9
PLATTSMOUTH    CLEAR     18   6  58 NW6       30.62R WCI  10
$$

NEZ044-045-051>053-067-090100-
OMAHA AREA

CITY           SKY/WX    TMP DP  RH WIND       PRES   REMARKS
OMAHA EPPLEY   CLEAR     19   7  59 NW8       30.63R WCI   9
6HR MIN TEMP:  19; 6HR MAX TEMP:  25;

BLAIR          CLEAR     19   9  63 NW5       30.60S WCI  12
FREMONT        CLEAR     16   8  71 NW7       30.63R WCI   6
MILLARD        CLEAR     24   9  54 NW3       30.63S
OFFUTT AFB     CLEAR     21   7  55 NW8       30.62S WCI  11
PLATTSMOUTH    CLEAR     18   6  58 NW6       30.62R WCI  10
WAHOO          FAIR      19   8  63 NW9       30.63S WCI   7
$$




USA.gov is the U.S. government's official web portal to all federal, state and local government web resources and services.